Theta_e
345 351 360 360 360 360 358 357 358 359 359 359 360 360 361 361 361 360 360 360 360 360 359 357 355 356 356 356 356 355 357 357 354 352 350 350 351 352 356 352 347 343 349
346 350 360 360 358 355 358 357 358 359 359 360 361 361 361 360 360 359 358 358 359 358 357 355 354 354 353 353 353 355 355 355 356 353 352 350 351 351 353 348 348 345 348
345 349 354 359 357 355 358 359 359 360 360 360 361 361 360 359 359 358 358 358 358 355 354 354 353 353 352 351 351 353 354 356 356 354 353 346 345 350 350 349 348 347 346
345 345 349 357 354 356 358 359 360 360 360 361 360 359 359 359 358 358 358 358 358 354 353 353 352 352 351 350 351 352 354 355 356 356 352 350 348 352 351 350 349 348 347
342 345 350 356 354 357 358 359 360 360 360 360 359 358 356 357 357 357 357 357 355 353 352 352 351 351 351 352 353 354 355 356 356 352 350 350 346 352 352 352 351 350 347
343 345 354 355 354 357 359 360 361 360 359 359 358 357 355 354 356 356 355 355 353 351 351 351 353 354 354 355 355 356 358 358 358 345 344 352 345 356 354 352 352 351 349
343 346 349 354 353 358 360 360 361 361 359 359 358 355 355 355 355 354 354 353 351 352 352 353 356 357 357 357 357 357 357 359 354 346 347 349 347 356 357 356 354 351 351
343 344 345 352 353 358 359 359 359 359 359 358 358 357 355 355 354 354 353 352 353 354 355 356 358 358 358 359 359 358 358 359 348 345 351 348 352 357 358 356 355 351 350
342 343 345 347 350 358 358 358 358 358 358 358 356 356 355 355 354 354 352 354 355 355 356 357 358 358 358 359 359 359 359 359 334 344 350 350 356 358 357 356 354 352 351
341 342 342 345 348 349 352 359 358 358 357 357 356 356 355 355 355 354 351 354 354 354 355 356 357 356 355 355 356 357 360 360 348 343 348 349 358 361 359 358 356 356 354
339 340 341 342 345 347 347 352 356 356 356 356 355 356 352 347 346 349 352 355 355 355 354 354 355 355 354 355 356 356 358 350 350 349 348 355 359 361 360 360 359 358 357
334 337 340 341 342 343 348 347 346 348 348 347 347 344 346 343 339 348 352 357 355 355 355 355 355 356 356 348 345 352 349 347 347 348 348 358 359 361 359 360 360 360 359
333 336 338 338 339 339 343 345 344 343 344 343 343 342 344 344 342 347 342 348 347 351 347 348 346 347 341 339 337 336 337 337 338 346 353 357 358 360 358 359 359 360 359
330 333 334 337 336 340 344 342 342 342 341 341 343 342 338 338 338 338 342 344 345 346 344 340 338 339 338 339 338 339 340 340 341 349 356 357 357 358 357 357 357 359 359
328 329 336 336 334 339 341 338 337 340 340 342 342 340 344 344 345 346 342 342 339 337 336 335 336 336 337 337 337 340 339 338 342 349 347 351 350 352 355 357 357 355 357
329 329 336 336 338 339 339 337 339 339 340 341 339 338 339 340 340 340 339 334 332 333 332 331 330 331 332 334 334 332 335 336 346 345 340 342 346 348 348 350 353 358 358
328 332 336 336 336 336 342 339 338 336 341 337 335 333 334 334 332 333 334 329 328 329 329 325 324 326 324 323 321 321 323 334 342 344 337 334 335 341 342 345 348 351 354
331 331 333 338 340 342 340 341 338 339 337 335 331 329 328 329 329 330 327 324 324 327 320 318 320 320 317 317 314 315 316 335 334 326 325 329 329 328 332 339 345 348 348
334 333 335 340 339 340 338 337 334 334 333 332 329 325 325 324 325 325 322 319 321 318 316 316 317 317 316 312 312 312 315 334 332 328 324 322 324 323 323 332 336 340 338
334 335 336 338 337 337 338 332 332 331 324 323 322 320 320 320 322 320 318 316 316 314 313 314 313 315 312 310 314 315 327 332 330 321 315 314 319 317 318 316 319 328 330
333 333 334 333 333 335 333 330 329 325 320 319 319 318 317 318 318 316 315 315 314 313 312 312 312 314 308 308 311 317 325 324 315 313 311 310 313 313 313 315 316 320 321
332 333 332 333 332 333 333 332 330 323 320 318 317 315 318 319 318 316 312 311 312 309 308 308 309 308 308 309 306 309 317 318 314 310 309 310 308 311 312 314 312 315 316
333 334 334 334 334 333 334 323 320 320 317 314 312 311 316 314 314 313 310 310 308 307 305 306 307 306 304 307 308 308 306 309 309 313 307 309 307 308 309 311 310 311 316
332 334 334 333 333 331 327 321 319 317 314 315 311 308 309 311 310 312 309 308 307 306 306 306 308 306 305 301 305 309 305 304 301 302 305 306 306 306 306 308 309 310 310
331 331 332 331 330 329 328 326 323 320 315 312 310 307 307 308 310 312 309 308 306 306 305 305 305 305 304 302 302 300 302 301 300 299 295 298 298 302 306 306 308 309 307
330 329 329 327 325 327 326 324 321 316 312 311 308 305 305 305 307 309 309 306 307 304 303 304 303 303 303 302 301 300 298 297 296 295 294 293 293 297 304 305 305 304 304
Wind_Speed
8 12 16 17 18 18 17 16 15 14 13 14 15 14 16 15 15 14 13 12 11 12 12 13 12 12 11 11 10 8 9 10 11 11 12 11 12 13 9 15 15 12 13
17 13 18 17 17 18 17 16 14 13 13 13 15 15 15 14 13 13 12 10 11 11 11 11 10 10 9 8 7 7 8 7 6 8 9 10 10 12 17 16 15 12 14
17 14 16 17 17 17 16 14 12 13 13 15 15 15 13 12 11 10 9 8 10 10 10 9 8 8 7 6 6 5 6 4 4 5 6 4 4 11 15 16 15 14 13
17 12 14 18 18 17 15 13 12 14 14 15 15 13 12 11 10 9 8 7 8 8 8 7 6 6 4 4 4 4 3 1 3 6 5 4 8 11 14 15 14 13 13
16 12 15 19 19 16 14 13 14 15 15 14 13 12 11 10 8 8 7 6 6 5 5 5 4 3 3 4 4 5 3 2 1 4 5 5 6 10 14 14 13 12 12
16 12 19 19 19 16 15 14 15 16 15 13 12 11 10 8 6 6 5 4 3 2 2 2 1 2 3 4 6 8 4 6 8 4 7 10 6 12 15 14 14 12 12
16 13 14 19 20 16 15 15 15 15 15 13 11 10 9 7 5 4 3 2 1 1 1 2 3 4 4 7 9 7 6 5 5 4 2 9 8 14 14 14 14 12 12
18 13 14 20 20 15 15 14 14 15 14 12 10 8 7 6 5 4 3 3 3 4 4 4 5 7 7 9 11 8 4 9 9 6 6 3 13 16 15 13 13 13 12
18 14 12 12 17 16 14 13 13 14 13 10 9 8 7 7 6 6 5 4 4 5 5 6 7 8 9 9 11 9 4 8 7 3 2 2 16 16 17 15 13 12 12
16 14 11 10 10 9 10 14 13 13 12 11 10 10 9 8 7 7 8 6 6 5 5 6 7 6 8 9 9 11 0 3 3 2 4 4 15 16 18 16 14 12 11
16 15 14 13 11 10 8 11 13 15 13 11 10 11 8 4 5 8 8 9 8 6 6 7 7 6 10 12 10 9 8 6 7 4 5 8 16 16 15 15 13 12 12
19 18 16 15 15 14 11 9 7 8 5 5 6 6 5 6 6 10 9 11 9 6 7 10 9 7 8 5 5 5 1 2 7 3 3 13 12 12 13 13 12 12 12
17 15 18 17 16 15 11 8 5 5 5 5 7 6 5 4 4 5 3 4 3 4 3 6 4 2 4 3 5 4 2 4 4 3 4 4 3 2 4 5 7 8 8
13 16 13 16 12 13 9 9 9 7 6 6 7 7 1 3 4 2 2 2 2 2 3 2 1 3 6 7 7 5 6 5 4 6 10 17 15 12 10 6 2 3 7
10 9 15 12 8 7 11 7 7 8 5 5 5 5 4 4 4 3 3 4 3 2 3 5 5 5 5 6 6 6 6 7 7 6 7 18 17 17 18 17 11 2 3
16 13 15 12 8 5 5 7 6 5 7 7 5 5 8 5 4 5 5 5 5 5 5 5 5 5 5 5 5 6 6 6 12 9 7 9 19 18 19 18 17 18 11
12 12 14 10 9 7 6 6 5 5 9 7 6 7 7 6 6 6 4 5 4 5 6 6 6 5 5 5 6 5 5 7 8 8 6 7 9 16 19 18 15 18 19
10 16 11 10 9 8 7 5 5 8 7 7 6 6 8 7 7 6 5 5 5 5 5 5 5 5 4 5 4 4 4 5 9 8 7 7 6 6 13 16 15 19 23
11 9 9 12 10 8 8 6 7 9 8 7 7 7 7 7 6 5 4 5 6 4 5 4 3 3 3 4 5 5 2 4 7 7 8 8 7 5 5 13 15 19 19
9 8 8 8 11 9 8 5 5 8 9 8 7 6 7 5 6 5 5 6 5 4 4 3 3 3 3 3 4 4 3 4 7 6 6 6 5 6 6 6 4 9 19
8 8 8 10 7 8 5 5 4 5 7 7 7 8 7 6 6 6 5 5 4 5 4 5 3 3 4 4 2 3 2 6 8 5 5 5 6 5 7 6 4 4 7
9 9 9 8 8 6 5 3 3 6 6 7 6 7 6 6 5 6 5 5 5 5 6 5 5 2 2 4 3 1 2 4 5 4 4 5 6 6 5 5 7 6 5
12 13 12 9 9 6 7 8 9 10 7 4 4 4 3 6 5 6 7 6 6 5 4 4 4 4 2 3 6 4 1 2 3 3 3 4 5 4 4 6 6 7 5
10 7 10 10 7 7 9 9 11 7 7 4 5 4 5 6 6 6 6 6 6 5 6 4 4 4 3 4 2 4 5 3 3 1 3 3 2 4 5 4 6 5 6
12 6 10 9 5 7 5 8 7 7 9 9 6 7 6 5 6 6 6 7 6 4 5 6 6 6 5 4 3 2 4 4 5 4 1 5 3 3 1 5 5 5 5
14 11 10 10 5 3 4 6 9 14 13 10 8 5 4 4 5 6 7 6 6 6 5 4 6 8 6 6 4 5 4 3 3 4 4 1 1 3 3 5 5 5 5
Wind_Direction
131 131 116 110 111 110 110 111 108 102 103 98 99 90 82 79 80 80 80 80 81 82 77 75 69 68 67 66 68 69 66 72 74 76 76 80 87 82 108 94 93 91 87
135 130 121 119 118 118 116 120 119 113 108 101 98 91 86 85 83 81 80 81 83 79 78 74 71 66 65 68 64 62 71 79 93 103 101 90 89 83 89 99 98 96 90
127 130 124 125 124 123 123 125 121 116 107 101 96 92 90 87 83 84 86 85 81 84 84 80 71 62 57 53 46 42 61 66 133 132 139 137 112 102 101 102 102 101 98
129 127 126 130 126 125 129 123 122 114 107 102 98 99 98 92 87 80 73 73 81 79 77 75 67 61 42 24 20 350 61 124 128 191 191 188 134 124 115 113 112 109 106
123 129 132 126 131 136 134 126 118 111 108 105 106 106 102 96 91 86 78 68 72 76 74 73 63 43 12 351 334 306 320 296 298 231 210 186 140 146 132 126 121 129 116
121 130 126 135 134 142 132 126 123 119 115 113 116 114 110 105 97 93 96 94 85 69 55 35 12 349 321 313 299 292 338 342 320 241 222 189 151 160 143 144 139 121 130
127 133 132 136 140 141 137 129 127 125 123 123 123 123 121 124 127 132 136 166 174 246 281 299 302 295 289 281 272 274 321 309 292 333 131 150 152 164 150 141 147 143 143
131 137 142 143 144 144 135 126 122 125 127 129 134 138 147 156 170 190 208 216 265 273 272 272 277 272 270 265 267 276 289 301 32 25 127 180 164 163 157 152 152 154 153
135 139 140 147 150 144 135 131 128 129 126 134 143 156 183 193 203 211 230 242 243 249 253 251 251 258 270 279 288 289 310 288 69 102 30 233 171 170 160 160 162 166 166
136 140 147 146 140 142 144 146 141 141 147 157 173 187 198 211 225 231 229 238 230 230 235 248 250 261 274 275 283 290 233 245 91 305 265 221 185 180 165 162 170 174 179
143 154 155 160 156 153 150 160 155 162 167 178 195 208 205 208 219 233 229 235 227 238 256 267 284 306 309 301 287 275 295 129 175 193 237 207 190 181 171 162 173 179 185
155 160 165 168 169 163 163 159 165 176 181 186 203 213 206 215 206 213 210 220 227 224 265 274 286 313 295 286 299 318 239 241 231 156 126 196 181 175 174 163 172 184 191
160 164 169 172 173 167 156 163 175 185 187 193 204 220 213 223 198 211 179 206 186 249 268 280 321 261 319 347 342 353 42 94 68 130 108 121 96 148 166 160 163 180 203
171 165 158 170 164 154 158 171 179 182 186 190 192 174 152 353 328 356 165 214 185 244 244 270 107 33 14 358 360 344 35 47 60 83 74 71 67 65 60 51 75 203 210
176 160 150 157 156 148 165 176 171 190 159 160 133 83 87 37 26 43 79 81 71 56 36 28 32 22 13 356 349 354 34 22 62 87 88 81 77 66 54 54 56 67 254
172 161 153 155 140 141 126 145 116 122 105 92 88 83 74 52 22 33 54 60 39 31 26 30 25 11 355 1 9 10 18 21 88 106 98 81 75 71 66 54 51 52 62
152 136 144 146 134 136 114 107 109 115 103 102 90 68 66 62 36 12 60 53 28 15 32 27 14 8 10 2 9 0 27 73 95 104 105 96 80 70 68 62 51 62 67
122 139 144 143 114 125 117 96 95 93 101 99 90 78 64 50 45 33 67 50 27 32 38 32 19 357 358 10 341 332 11 104 105 94 89 86 84 76 67 72 68 69 72
125 130 120 128 116 119 105 83 89 93 91 82 79 65 58 49 43 53 76 50 44 57 48 40 8 20 4 354 335 333 320 136 109 107 97 78 94 99 88 83 78 77 67
126 121 112 126 125 117 96 101 86 94 83 83 78 73 56 46 36 49 70 72 73 69 44 35 39 10 70 345 315 321 305 112 99 87 87 84 99 90 100 87 69 81 81
129 119 122 123 130 121 118 127 118 110 106 92 82 76 61 50 41 49 76 68 68 73 58 17 339 64 36 11 21 359 343 57 96 97 95 88 98 89 85 98 93 77 75
149 132 127 120 110 108 111 98 114 113 91 99 93 80 65 48 26 53 71 64 77 72 48 35 21 18 43 43 98 328 106 39 19 28 87 94 109 109 93 92 88 110 112
161 158 138 143 137 134 113 102 99 101 98 76 84 89 93 86 67 68 63 65 69 74 62 42 23 49 75 14 56 133 132 165 108 328 21 90 102 97 112 113 90 98 128
154 170 134 150 147 116 132 124 130 133 132 125 121 108 89 101 87 87 82 73 74 67 58 37 26 38 83 54 19 47 72 114 117 59 344 39 59 99 137 105 103 91 101
138 152 139 144 126 130 125 130 125 115 109 117 113 112 108 91 98 81 79 72 84 68 57 55 39 44 49 66 29 11 46 29 51 102 67 333 8 21 23 102 108 86 60
149 140 143 122 129 116 100 117 128 123 123 125 132 126 123 104 85 79 75 66 75 72 65 59 56 54 54 56 48 31 66 92 39 64 80 319 318 323 43 66 82 73 59